Tracking 20037 objects as of 21-Nov-2019
Live streaming from Space Station
objects crossing your sky now

COSMOS 1275 DEB

Track COSMOS 1275 DEB now!
10-day predictions


NORAD ID: 33503
Int'l Code: 1981-053MZ
Perigee: 698.3 km
Apogee: 724.0 km
Inclination: 83.0 °
Period: 98.9 minutes
Semi major axis: 7082 km
RCS: 0.0116 m2 (small)
Launch date: June 4, 1981
Source: Commonwealth of Independent States (former USSR) (CIS)
Launch site: PLESETSK MISSILE AND SPACE COMPLEX (PKMTR)

Note: This is SATELLITE DEBRIS
aabbcc
Your satellite tracking list
Your tracking list is empty




NASA's NSSDC Master Catalog

Two Line Element Set (TLE):
1 33503U 81053MT  19323.86177616 +.00001202 +00000-0 +26475-3 0  9993
2 33503 082.9586 159.4219 0018122 209.1271 150.8921 14.56645076571611
Source of the keplerian elements: AFSPC